STARLINK-33962, 63950

Orbit data source: Space-Track

STARLINK-33962, 63950 is a payload satellite owned by SpaceX/Seattle (US) in LEO that was launched on Tue, 13 May 2025 UTC via an FALCON 9 launch vehicle from the Air Force Western Test Range (AFWTR). Payload-class satellites include a variety of spacecraft equipped with specific instruments for various scientific and technological missions. These include communications satellites like Starlink; space stations such as the ISS; scientific satellites like the Hubble; Earth observation satellites from companies like Planet Labs, Umbra, and HawkEye 360; GPS; miniature CubeSats for education and research; and military/defense satellites.

Loading next visibility...
Identifier
63950, 2025-098AA
Orbit
LEO
Country
Flag of USUS
Related business
Manufacturer
SpaceX/Seattle
Mission
Operational Commercial Communications
Bus & Motor
STARLINK V2MO, Unknown motor
Mass
575 kg wet, ~530 kg dry
Launch date (UTC)
2025-05-13 (7 months ago)
Launch vehicle
FALCON 9
Launch site
Air Force Western Test Range (AFWTR)
Object type
Payload
Rocket body
Debris
Shape & HBR
Box + 2 Pan, 17.7 m
Radar Cross Section
36.964 m², Large (>1 m²)

Expand to show TLE details & history
Last TLE update: 19 hours ago

TLE from 19 hours ago
0 STARLINK-33962
1 63950U 25098AA  25348.82841539 -.00003278  00000-0 -26694-3 0  9991
2 63950  70.0009 128.3146 0003246 280.9401  79.1393 14.98341209 33846
Epoch: 2025-12-14T19:52Z
TLE epoch observation values (Epoch: 2025-12-14T19:52:55.089Z)
Latitude
-0.00002°
Longitude
106.34933°
Altitude
574.021 km
Speed
7.574 km/s
True Right ascension
08h 33m 15s
True Declination
0° 00' 00"
Sunlit
Object was in full shadow at epoch
Visualization orbit readout
Latitude
Unknown
Longitude
Unknown
Altitude
Unknown
Speed
Unknown
Apparent Right ascension
Unknown
Apparent Declination
Unknown
Sunlit
N/A
Visualization observer readout
Local Sidereal Time
13:25:38
Azimuth
Unknown
Elevation
Unknown
Doppler factor
Unknown
Orbital elements
Apogee altitude
572.225 km
Perigee altitude
567.714 km
Semi-major axis
6,948.106 km
Eccentricity
0.00032
Inclination
70.0009°
RAAN
128.3146°
Arg. of periapsis
280.9401°
True anomaly
79.17583°
Mean anomaly
79.1393°
Eccentric anomaly
79.15757°
Mean motion
3.74752 °/min
Orbital period
96.06 mins
BSTAR
-0.00026694
Loading maneuver chart data...
Computing Atmospheric mass density...
Loading historical data...
Loading historical data...
Loading historical data...
Loading historical data...
Loading historical data...
Loading historical data...
Loading historical data...

Documentation

Showing up to 5 results
|